sat.trackr.live / text

‹ back to catalog

STARLINK-33975

NORAD 63802 · 2025-091AC

PAYLOAD ACTIVE UNKNOWN

§ Identity

Operator
Country
US
Launch date
2025-05-02
Launch site
AFETR
Launch vehicle
Mass (kg)
RCS (m²)

Purposes: comms

External: N2YO · Heavens-Above · Gunter

§ Orbital elements

Epoch: 2026-05-24T20:25:49.791936Z

Period
94.27 min
Inclination
43.0013°
Eccentricity
0.0001629
Mean motion
15.27591099 rev/d
Perigee alt
481.9 km
Apogee alt
484.1 km
Semi-major
6,861.2 km
B*
5.5301e-4
RAAN
342.0952°
Arg perigee
277.5488°
Mean anomaly
82.5178°
Rev number
6,066

§ Raw data

STARLINK-339751 63802U 25091AC  26144.85127074  .00014992  00000+0  55301-3 0  99982 63802  43.0013 342.0952 0001629 277.5488  82.5178 15.27591099 60663

JSON: /api/v1/satellites/63802 · /tle

For live sub-satellite position, see the globe view (requires WebGL).

§ Visibility from observer

Set your observer location to see the next 7 days of passes ≥ 10°. The values pass through the URL so the page stays shareable.

No JS? Fill the form by hand. The geolocation button needs JavaScript.